N7BBI Weather Reports


time (UTC)temp
C
wind
direction
speed
KPH
gust
KPH
rain 1hr
cm
rain 24hr
cm
rain mn
cm
humidity
%
barometer
mb
20260906070100 21 39 4.8 14.5 0.00 0.00 0.00 88 1015.4
20260906064559 21 41 8.0 16.1 0.00 0.00 0.00 89 1015.5
20260906063054 22 58 8.0 20.9 0.00 0.00 0.00 89 1015.2
20260906061552 22 74 6.4 19.3 0.00 0.00 0.00 88 1015.2
20260906060122 22 51 8.0 19.3 0.00 0.00 0.00 87 1015.3
20260906054548 22 46 6.4 19.3 0.00 0.00 0.00 87 1015.4
20260906053045 22 57 8.0 17.7 0.00 0.00 0.00 87 1015.3
20260906051543 22 55 11.3 22.5 0.00 0.00 0.00 87 1015.1
20260906050040 22 53 9.7 16.1 0.00 0.00 0.00 88 1015.1
20260906044537 23 39 6.4 17.7 0.00 0.00 0.00 88 1015.2
20260906043039 23 23 6.4 16.1 0.00 0.00 0.00 88 1014.9
20260906041535 23 29 4.8 20.9 0.00 0.00 0.00 89 1014.5
20260906040035 23 50 3.2 9.7 0.00 0.00 0.00 88 1014.3
20260906034532 23 52 4.8 9.7 0.00 0.00 0.00 88 1014.0
20260906033026 23 27 3.2 6.4 0.00 0.00 0.00 88 1014.0
20260906031542 23 86 0.0 1.6 0.00 0.00 0.00 87 1014.1
20260906030022 23 86 0.0 6.4 0.00 0.00 0.00 87 1013.7
20260906024523 23 86 3.2 6.4 0.00 0.00 0.00 87 1013.7
20260906023019 23 62 1.6 8.0 0.00 0.00 0.00 88 1013.4
20260906021521 23 56 1.6 4.8 0.00 0.00 0.00 87 1013.4
20260906020016 23 56 3.2 9.7 0.00 0.00 0.00 86 1013.1
20260906014523 23 51 3.2 9.7 0.00 0.00 0.00 86 1013.1
20260906013013 23 74 4.8 11.3 0.00 0.00 0.00 85 1012.8
20260906011512 24 70 4.8 12.9 0.00 0.00 0.00 84 1012.7
20260906010013 25 22 6.4 14.5 0.00 0.00 0.00 82 1012.9
20260906004511 25 36 11.3 20.9 0.00 0.00 0.00 81 1012.8
20260906003009 26 40 9.7 22.5 0.00 0.00 0.00 79 1012.8
20260906001509 27 50 9.7 19.3 0.00 0.00 0.00 77 1012.9
20260906000008 27 5 8.0 19.3 0.00 0.00 0.00 75 1012.6
20260905234507 28 26 6.4 24.1 0.00 0.00 0.00 73 1012.5
20260905233005 29 35 9.7 24.1 0.00 0.00 0.00 73 1012.4
20260905231505 30 10 4.8 22.5 0.00 0.00 0.00 72 1012.3
20260905230004 30 21 14.5 24.1 0.00 0.00 0.00 72 1012.3
20260905224504 30 23 6.4 22.5 0.00 0.00 0.00 71 1012.5
20260905223003 31 355 3.2 25.7 0.00 0.00 0.00 70 1012.3
20260905221502 31 50 12.9 24.1 0.00 0.00 0.00 69 1012.0
20260905220001 31 18 11.3 24.1 0.00 0.00 0.00 68 1012.0
20260905214607 32 38 6.4 17.7 0.00 0.00 0.00 67 1012.1
20260905213058 32 24 6.4 20.9 0.00 0.00 0.00 67 1012.0
20260905211559 32 360 9.7 22.5 0.00 0.00 0.00 67 1011.7
20260905210107 33 360 4.8 17.7 0.00 0.00 0.00 67 1011.7
20260905204558 33 33 9.7 20.9 0.00 0.00 0.00 65 1011.7
20260905203059 34 18 8.0 17.7 0.00 0.00 0.00 64 1011.8
20260905201553 34 51 4.8 16.1 0.00 0.00 0.00 63 1011.9
20260905200100 33 351 3.2 9.7 0.00 0.00 0.00 66 1011.8
20260905194548 33 58 6.4 14.5 0.00 0.00 0.00 66 1011.9
20260905193045 33 43 4.8 11.3 0.00 0.00 0.00 64 1012.0
20260905191544 33 330 3.2 9.7 0.00 0.00 0.00 66 1012.1
20260905190046 33 320 1.6 14.5 0.00 0.00 0.00 67 1012.4
20260905184539 33 341 6.4 16.1 0.00 0.00 0.00 65 1012.4
20260905183036 33 10 3.2 9.7 0.00 0.00 0.00 66 1012.3
20260905181535 33 49 4.8 14.5 0.00 0.00 0.00 66 1012.4
20260905180046 32 52 6.4 16.1 0.00 0.00 0.00 65 1012.4
20260905174526 32 70 6.4 14.5 0.00 0.00 0.00 67 1012.6
20260905173025 32 28 4.8 11.3 0.00 0.00 0.00 68 1012.5
20260905171530 32 41 9.7 17.7 0.00 0.00 0.00 69 1012.6
20260905170023 32 68 6.4 19.3 0.00 0.00 0.00 66 1012.8
20260905164520 32 37 3.2 17.7 0.00 0.00 0.00 68 1012.9
20260905163016 31 58 8.0 16.1 0.00 0.00 0.00 73 1012.9
20260905161523 31 65 6.4 14.5 0.00 0.00 0.00 70 1012.9
20260905160014 31 62 4.8 16.1 0.00 0.00 0.00 70 1012.8
20260905154511 31 68 1.6 12.9 0.00 0.00 0.00 72 1012.8
20260905153008 31 10 4.8 16.1 0.00 0.00 0.00 73 1012.8
20260905151507 30 62 6.4 17.7 0.00 0.00 0.00 71 1012.7
20260905150005 30 21 1.6 11.3 0.00 0.00 0.00 73 1012.5
20260905144502 30 62 9.7 17.7 0.00 0.00 0.00 73 1012.4
20260905143101 30 44 11.3 17.7 0.00 0.00 0.00 74 1012.2
20260905141555 29 36 6.4 12.9 0.00 0.00 0.00 79 1012.1
20260905140058 28 43 4.8 14.5 0.00 0.00 0.00 83 1012.0
20260905134557 27 38 4.8 12.9 0.00 0.00 0.00 84 1012.1
20260905133047 27 14 1.6 8.0 0.00 0.00 0.00 87 1012.0
20260905131539 26 61 3.2 8.0 0.00 0.00 0.00 87 1011.9
20260905130037 26 49 0.0 4.8 0.00 0.00 0.00 90 1011.8
20260905124534 25 5 1.6 8.0 0.00 0.00 0.00 92 1011.8
20260905123032 24 233 0.0 0.0 0.00 0.00 0.00 94 1011.7
20260905121530 23 233 0.0 3.2 0.00 0.00 0.00 94 1011.6
20260905120040 23 233 0.0 1.6 0.00 0.00 0.00 93 1011.2
20260905114527 23 233 0.0 3.2 0.00 0.00 0.00 92 1010.9
20260905113028 23 233 0.0 0.0 0.00 0.00 0.00 92 1010.7
20260905111542 23 233 0.0 1.6 0.00 0.00 0.00 92 1010.6
20260905110024 24 233 0.0 3.2 0.00 0.00 0.00 91 1010.6
20260905104522 24 233 0.0 1.6 0.00 0.00 0.00 91 1010.5
20260905103025 24 233 0.0 3.2 0.00 0.00 0.00 90 1010.7
20260905101516 25 233 0.0 3.2 0.00 0.00 0.00 90 1010.6
20260905100016 25 233 0.0 3.2 0.00 0.00 0.00 89 1010.7
20260905094515 25 233 0.0 1.6 0.00 0.00 0.00 88 1010.7
20260905093123 25 233 0.0 1.6 0.00 0.00 0.00 87 1010.8
20260905091510 26 233 0.0 8.0 0.00 0.00 0.00 87 1010.7
20260905090009 26 230 4.8 8.0 0.00 0.00 0.00 88 1010.6
20260905084507 25 199 3.2 4.8 0.00 0.00 0.00 89 1010.8
20260905083008 25 199 1.6 4.8 0.00 0.00 0.00 89 1010.9
20260905081506 26 199 0.0 3.2 0.00 0.00 0.00 88 1011.0
20260905080005 26 199 0.0 1.6 0.00 0.00 0.00 87 1011.1
20260905074504 26 199 0.0 4.8 0.00 0.00 0.00 86 1011.0
20260905073003 26 199 0.0 6.4 0.00 0.00 0.00 87 1010.9
20260905071502 26 199 1.6 4.8 0.00 0.00 0.00 87 1011.0